Regional Weather Roundup
Issued by NWS

Home | Current Version | Previous Version | Text Only | Print | Product List | Glossary On
Versions: 1 2 3 4 5 6 7 8 9 10 11 12 13 14 15 16 17 18 19 20 21 22 23 24 25 26 27 28 29 30 31 32 33 34 35 36 37 38 39 40 41 42 43 44 45 46 47 48 49 50
000
ASUS44 KOUN 200710
RWROK

WEATHER ROUNDUP FOR OKLAHOMA
NATIONAL WEATHER SERVICE NORMAN OK
100 AM CST SAT DEC 20 2014

NOTE: "FAIR" INDICATES FEW OR NO CLOUDS BELOW 12,000 FEET WITH NO
      SIGNIFICANT WEATHER AND/OR OBSTRUCTIONS TO VISIBILITY.

OKZ001>007-009>012-014-015-017-200800-
NORTHWEST OKLAHOMA AND THE PANHANDLE

CITY           SKY/WX    TMP DP  RH WIND       PRES   REMARKS
GAGE           CLOUDY    41  37  86 SW10      30.13F
ENID/WOODRING  CLEAR     36  36 100 S3        30.18F FOG
$$

OKZ016-021>023-033>039-044-045-200800-
SOUTHWEST OKLAHOMA

CITY           SKY/WX    TMP DP  RH WIND       PRES   REMARKS
LAWTON/REGL    CLOUDY    42  38  85 E3        30.20F
LAWTON/FT SILL CLOUDY    41  39  91 SE3       30.19F
FREDERICK      CLOUDY    43  41  93 CALM      30.17F FOG
CLINTON        CLOUDY    42  37  82 S6        30.18F
HOBART         CLOUDY    42  39  89 S6        30.19F
ALTUS AFB      CLOUDY    42  42 100 S6        30.19F
$$

OKZ018>020-024>031-200800-
CENTRAL OKLAHOMA

CITY           SKY/WX    TMP DP  RH WIND       PRES   REMARKS
OKLAHOMA CITY  CLOUDY    40  37  89 S3        30.20S
OKC/WILEY POST CLOUDY    39  37  92 SW3       30.21F FOG
OKC/TINKER AFB CLOUDY    39  37  93 S5        30.20S
STILLWATER     CLOUDY    38  33  82 CALM      30.21F
GUTHRIE        CLOUDY    37  35  92 S3        30.20F FOG
$$

OKZ008-013-054>072-200800-
NORTHEAST OKLAHOMA

CITY           SKY/WX    TMP DP  RH WIND       PRES   REMARKS
TULSA          CLOUDY    39  36  89 NW3       30.23F
TULSA/JONES    CLOUDY    39  37  92 CALM      30.22F
PONCA CITY     CLOUDY    39  34  82 S3        30.21S
BARTLESVILLE   CLOUDY    37  34  89 CALM      30.23F
MUSKOGEE       CLOUDY    40  38  93 N3        30.24S FOG
$$

OKZ032-040>043-046>053-073>077-200800-
SOUTH CENTRAL/SOUTHEAST OKLAHOMA

CITY           SKY/WX    TMP DP  RH WIND       PRES   REMARKS
ARDMORE/DWNTWN CLOUDY    41  39  93 CALM      30.22S
MCALESTER      FOG       42  41  96 N5        30.22F VSB 1/2
$$



USA.gov is the U.S. government's official web portal to all federal, state and local government web resources and services.